Weather History for EGVA - January, 2013

Change the Weather History Date:

Friday, January 18, 2013

  Actual Average Record
Temperature  
Mean Temperature 30 °F -  
Max Temperature 33 °F 47 °F 55 °F (2006)
Min Temperature 28 °F 38 °F 26 °F (2012)
Degree Days  
Heating Degree Days 34    
Moisture  
Dew Point 30 °F    
Average Humidity 99    
Maximum Humidity 100    
Minimum Humidity 93    
Precipitation  
Precipitation 0.01 in - - ()
Sea Level Pressure  
Sea Level Pressure 29.57 in    
Wind  
Wind Speed 12 mph ()    
Max Wind Speed 18 mph    
Max Gust Speed 23 mph    
Visibility 3.5 miles    
Events Fog , Snow    
Averages and records for this station are not official NWS values.
T = Trace of Precipitation, MM = Missing Value Source: Averaged Metar Reports

Daily Weather History Graph

Daily Weather History Graph

Search for Another Location

Airport or City:

Trip Planner

Search our weather history database for the weather conditions in past years. The results will help you decide how hot, cold, wet, or windy it might be!

Date:

Astronomy

Jan. 18, 2013 Rise Set
Actual Time 8:03 AM GMT 4:31 PM GMT
Civil Twilight 7:25 AM GMT 5:10 PM GMT
Nautical Twilight 6:43 AM GMT 5:51 PM GMT
Astronomical Twilight 6:04 AM GMT 6:31 PM GMT
Moon 10:36 AM GMT (1/18) 12:02 AM GMT (1/18)
Length of Visible Light 9h 44m
Length of Day
8h 27m
Waxing Crescent, 45% of the Moon is Illuminated
Jan 18
Waxing Crescent
Jan 18
First Quarter
Jan 27
Full
Feb 3
Last Quarter
Feb 10
New

Hourly Weather History & Observations

Time (GMT) Temp. Windchill Dew Point Humidity Pressure Visibility Wind Dir Wind Speed Gust Speed Precip Events Conditions
12:05 AM 32.0 °F 23.0 °F 32.0 °F 100% 29.81 in 5.0 mi ESE 11.5 mph - N/A   Overcast
12:06 AM 32.0 °F 23.0 °F 32.0 °F 100% 29.81 in 5.0 mi ESE 11.5 mph - N/A   Overcast
12:09 AM 32.0 °F 23.6 °F 32.0 °F 100% 29.81 in 5.0 mi ESE 10.4 mph - N/A   Overcast
12:13 AM 32.0 °F 23.6 °F 32.0 °F 100% 29.81 in 5.0 mi ESE 10.4 mph - N/A   Overcast
12:22 AM 32.0 °F 23.6 °F 32.0 °F 100% 29.81 in 5.6 mi ESE 10.4 mph - N/A   Overcast
12:25 AM 32.0 °F 23.6 °F 32.0 °F 100% 29.80 in 5.6 mi ESE 10.4 mph - N/A   Overcast
12:26 AM 32.0 °F 23.6 °F 32.0 °F 100% 29.80 in 5.6 mi ESE 10.4 mph - N/A   Overcast
12:28 AM 32.0 °F 23.6 °F 32.0 °F 100% 29.80 in 5.6 mi ESE 10.4 mph - N/A   Overcast
12:29 AM 32.0 °F 23.6 °F 32.0 °F 100% 29.80 in 5.6 mi ESE 10.4 mph - N/A   Overcast
12:42 AM 32.0 °F 23.0 °F 32.0 °F 100% 29.79 in 5.0 mi ESE 11.5 mph - N/A   Overcast
12:43 AM 32.0 °F 23.6 °F 32.0 °F 100% 29.79 in 5.0 mi ESE 10.4 mph - N/A   Overcast
12:58 AM 33.1 °F 24.9 °F 32.9 °F 99% 29.82 in 5.6 mi ESE 10.4 mph - 0.01 in   Overcast
1:04 AM 32.0 °F 23.6 °F 32.0 °F 100% 29.78 in 6.2 mi ESE 10.4 mph - N/A   Overcast
1:05 AM 32.0 °F 23.0 °F 32.0 °F 100% 29.78 in 6.2 mi ESE 11.5 mph - N/A   Overcast
1:07 AM 32.0 °F 23.6 °F 32.0 °F 100% 29.78 in 6.2 mi SE 10.4 mph - N/A   Overcast
1:10 AM 32.0 °F 24.2 °F 32.0 °F 100% 29.78 in 6.2 mi SE 9.2 mph - N/A   Overcast
1:18 AM 32.0 °F 23.6 °F 32.0 °F 100% 29.78 in 6.2 mi SE 10.4 mph - N/A   Overcast
1:27 AM 32.0 °F 24.2 °F 32.0 °F 100% 29.78 in 6.2 mi ESE 9.2 mph - N/A   Overcast
1:37 AM 32.0 °F 23.6 °F 32.0 °F 100% 29.77 in 6.2 mi SE 10.4 mph - N/A   Overcast
1:46 AM 32.0 °F 22.5 °F 32.0 °F 100% 29.77 in 6.2 mi SE 12.7 mph - N/A   Overcast
1:58 AM 33.6 °F 25.6 °F 32.9 °F 97% 29.80 in 6.2 mi SE 10.4 mph - 0.00 in   Overcast
1:59 AM 32.0 °F 23.6 °F 32.0 °F 100% 29.77 in 6.2 mi SE 10.4 mph - N/A   Overcast
2:29 AM 32.0 °F 23.6 °F 32.0 °F 100% 29.76 in 6.2 mi SE 10.4 mph - N/A   Overcast
2:53 AM 33.8 °F 25.3 °F 32.0 °F 93% 29.75 in 6.2 mi SE 11.5 mph - N/A   Mostly Cloudy
2:55 AM 33.8 °F 25.8 °F 32.0 °F 93% 29.75 in 6.2 mi SE 10.4 mph - N/A   Overcast
2:58 AM 33.8 °F 25.8 °F 32.2 °F 94% 29.78 in 6.2 mi SE 10.4 mph - 0.00 in   Overcast
3:04 AM 33.8 °F 24.8 °F 32.0 °F 93% 29.75 in 6.2 mi SE 12.7 mph - N/A   Overcast
3:10 AM 33.8 °F 24.8 °F 32.0 °F 93% 29.75 in 6.2 mi SE 12.7 mph - N/A   Overcast
3:15 AM 33.8 °F 24.8 °F 32.0 °F 93% 29.75 in 6.2 mi SE 12.7 mph - N/A   Overcast
3:39 AM 32.0 °F 23.0 °F 32.0 °F 100% 29.74 in 6.2 mi ESE 11.5 mph - N/A   Overcast
3:58 AM 33.4 °F 24.3 °F 31.8 °F 94% 29.75 in 6.2 mi ESE 12.7 mph - 0.00 in   Overcast
4:22 AM 32.0 °F 22.5 °F 32.0 °F 100% 29.71 in 6.2 mi ESE 12.7 mph - N/A   Overcast
4:36 AM 32.0 °F 23.0 °F 32.0 °F 100% 29.70 in 6.2 mi SE 11.5 mph - N/A   Overcast
4:44 AM 32.0 °F 23.0 °F 32.0 °F 100% 29.70 in 6.2 mi SE 11.5 mph - N/A   Overcast
4:49 AM 32.0 °F 22.5 °F 32.0 °F 100% 29.70 in 6.2 mi ESE 12.7 mph - N/A   Overcast
4:56 AM 32.0 °F 23.6 °F 32.0 °F 100% 29.70 in 6.2 mi ESE 10.4 mph - N/A   Overcast
4:58 AM 32.0 °F 23.0 °F 32.0 °F 100% 29.73 in 6.2 mi ESE 11.5 mph - 0.00 in   Overcast
5:25 AM 32.0 °F 23.0 °F 32.0 °F 100% 29.68 in 6.2 mi ESE 11.5 mph - N/A   Overcast
5:28 AM 32.0 °F 23.6 °F 32.0 °F 100% 29.68 in 6.2 mi ESE 10.4 mph - N/A   Overcast
5:41 AM 32.0 °F 23.0 °F 32.0 °F 100% 29.67 in 6.2 mi ESE 11.5 mph - N/A   Overcast
5:50 AM 32.0 °F 23.0 °F 32.0 °F 100% 29.66 in 6.2 mi ESE 11.5 mph - N/A   Overcast
5:58 AM 33.1 °F 24.4 °F 31.5 °F 94% 29.69 in 6.2 mi ESE 11.5 mph - 0.00 in   Overcast
6:03 AM 32.0 °F 22.5 °F 32.0 °F 100% 29.66 in 6.2 mi ESE 12.7 mph - N/A   Overcast
6:07 AM 32.0 °F 22.1 °F 32.0 °F 100% 29.65 in 6.2 mi ESE 13.8 mph - N/A   Overcast
6:18 AM 32.0 °F 23.0 °F 32.0 °F 100% 29.65 in 5.0 mi ESE 11.5 mph - N/A   Overcast
6:19 AM 32.0 °F 22.5 °F 32.0 °F 100% 29.65 in 5.0 mi ESE 12.7 mph - N/A   Overcast
6:20 AM 32.0 °F 23.0 °F 32.0 °F 100% 29.65 in 3.7 mi ESE 11.5 mph - N/A   Overcast
6:37 AM 32.0 °F 22.1 °F 32.0 °F 100% 29.65 in 3.7 mi ESE 13.8 mph - N/A   Overcast
6:44 AM 32.0 °F 22.5 °F 32.0 °F 100% 29.65 in 3.7 mi ESE 12.7 mph - N/A   Overcast
6:50 AM 32.0 °F 22.5 °F 32.0 °F 100% 29.64 in 3.7 mi ESE 12.7 mph - N/A   Overcast
6:58 AM 32.0 °F 22.5 °F 31.8 °F 99% 29.67 in 3.7 mi ESE 12.7 mph - 0.00 in   Overcast
7:06 AM 32.0 °F 22.5 °F 32.0 °F 100% 29.64 in 3.7 mi ESE 12.7 mph - N/A   Overcast
7:10 AM 32.0 °F 22.1 °F 32.0 °F 100% 29.64 in - ESE 13.8 mph - N/A   Overcast
7:11 AM 32.0 °F 22.1 °F 32.0 °F 100% 29.64 in - ESE 13.8 mph - N/A   Overcast
7:12 AM 32.0 °F 22.1 °F 32.0 °F 100% 29.63 in - ESE 13.8 mph - N/A   Overcast
7:13 AM 32.0 °F 22.1 °F 32.0 °F 100% 29.64 in - ESE 13.8 mph - N/A   Overcast
7:14 AM 32.0 °F 22.1 °F 32.0 °F 100% 29.63 in - ESE 13.8 mph - N/A   Overcast
7:15 AM 32.0 °F 22.5 °F 32.0 °F 100% 29.63 in - ESE 12.7 mph - N/A   Overcast
7:16 AM 32.0 °F 22.1 °F 32.0 °F 100% 29.63 in - ESE 13.8 mph - N/A   Overcast
7:17 AM 32.0 °F 21.6 °F 32.0 °F 100% 29.63 in - ESE 15.0 mph - N/A   Overcast
7:18 AM 32.0 °F 22.1 °F 32.0 °F 100% 29.63 in - ESE 13.8 mph - N/A   Overcast
7:19 AM 32.0 °F 22.5 °F 32.0 °F 100% 29.63 in - ESE 12.7 mph - N/A   Overcast
7:20 AM 32.0 °F 22.5 °F 32.0 °F 100% 29.63 in - ESE 12.7 mph - N/A   Overcast
7:21 AM 32.0 °F 22.5 °F 32.0 °F 100% 29.63 in - ESE 12.7 mph - N/A   Overcast
7:22 AM 32.0 °F 22.1 °F 32.0 °F 100% 29.63 in 2.5 mi ESE 13.8 mph - N/A   Overcast
7:27 AM 32.0 °F 21.6 °F 32.0 °F 100% 29.63 in 2.5 mi ESE 15.0 mph - N/A   Overcast
7:30 AM 32.0 °F 21.6 °F 32.0 °F 100% 29.63 in - ESE 15.0 mph - N/A   Overcast
7:54 AM 32.0 °F 21.2 °F 32.0 °F 100% 29.63 in 1.7 mi ESE 16.1 mph - N/A   Overcast
7:56 AM 32.0 °F 21.6 °F 32.0 °F 100% 29.63 in 1.5 mi ESE 15.0 mph - N/A   Overcast
7:58 AM 32.0 °F 21.2 °F 32.0 °F 100% 29.66 in 1.2 mi ESE 16.1 mph - 0.00 in   Overcast
7:59 AM 32.0 °F 22.1 °F 32.0 °F 100% 29.63 in 1.2 mi ESE 13.8 mph - N/A   Overcast
8:02 AM 32.0 °F 22.5 °F 32.0 °F 100% 29.63 in 1.0 mi ESE 12.7 mph - N/A   Mist
8:04 AM 32.0 °F 23.0 °F 32.0 °F 100% 29.63 in 1.0 mi ESE 11.5 mph - N/A Snow Light Snow
8:07 AM 32.0 °F 22.1 °F 32.0 °F 100% 29.63 in 1.0 mi ESE 13.8 mph - N/A Snow Light Snow
8:12 AM 32.0 °F 22.1 °F 32.0 °F 100% 29.63 in 0.7 mi East 13.8 mph - N/A Snow Light Snow
8:17 AM 32.0 °F 21.6 °F 32.0 °F 100% 29.63 in 0.7 mi ESE 15.0 mph - N/A   Mist
8:29 AM 32.0 °F 23.0 °F 30.2 °F 93% 29.62 in 0.7 mi East 11.5 mph - N/A Snow Light Snow
8:34 AM 32.0 °F 21.6 °F 30.2 °F 93% 29.62 in 0.7 mi ESE 15.0 mph - N/A Snow Light Snow
8:36 AM 32.0 °F 21.6 °F 30.2 °F 93% 29.62 in 0.7 mi East 15.0 mph - N/A Snow Light Snow
8:54 AM 30.2 °F 18.9 °F 30.2 °F 100% 29.62 in 1.0 mi East 16.1 mph - N/A   Mist
8:56 AM 30.2 °F 18.5 °F 30.2 °F 100% 29.62 in 1.0 mi ESE 17.3 mph - N/A   Mist
8:58 AM 30.0 °F 17.9 °F 29.8 °F 99% 29.64 in 1.0 mi ESE 18.4 mph - 0.00 in   Mist
9:02 AM 30.2 °F 18.9 °F 30.2 °F 100% 29.61 in 1.0 mi ESE 16.1 mph - N/A   Mist
9:03 AM 30.2 °F 18.9 °F 30.2 °F 100% 29.62 in 1.2 mi ESE 16.1 mph - N/A   Overcast
9:12 AM 30.2 °F 19.3 °F 30.2 °F 100% 29.61 in 1.0 mi East 15.0 mph 23.0 mph N/A   Mist
9:16 AM 30.2 °F 19.8 °F 30.2 °F 100% 29.61 in 1.0 mi East 13.8 mph - N/A   Mist
9:17 AM 30.2 °F 19.8 °F 30.2 °F 100% 29.61 in 0.7 mi East 13.8 mph - N/A   Mist
9:34 AM 30.2 °F 19.3 °F 28.4 °F 93% 29.61 in 1.0 mi East 15.0 mph 21.9 mph N/A Snow Light Snow
9:44 AM 28.4 °F 18.0 °F 28.4 °F 100% 29.60 in 0.7 mi East 12.7 mph - N/A Snow Light Snow
9:49 AM 28.4 °F 18.5 °F 28.4 °F 100% 29.60 in 1.0 mi East 11.5 mph - N/A Snow Light Snow
9:54 AM 28.4 °F 17.5 °F 28.4 °F 100% 29.60 in 0.7 mi East 13.8 mph - N/A Snow Light Snow
9:58 AM 29.3 °F 19.6 °F 29.1 °F 99% 29.63 in 0.7 mi East 11.5 mph - 0.00 in Snow Light Snow
10:18 AM 28.4 °F 18.5 °F 28.4 °F 100% 29.59 in 1.0 mi East 11.5 mph - N/A Snow Light Snow
10:25 AM 28.4 °F 18.0 °F 28.4 °F 100% 29.59 in 0.7 mi East 12.7 mph - N/A Snow Light Snow
10:35 AM 28.4 °F 17.5 °F 28.4 °F 100% 29.58 in 0.7 mi East 13.8 mph - N/A Snow Light Snow
10:38 AM 28.4 °F 16.6 °F 28.4 °F 100% 29.58 in 0.7 mi East 16.1 mph - N/A   Mist
10:40 AM 28.4 °F 18.0 °F 28.4 °F 100% 29.58 in 0.7 mi East 12.7 mph - N/A Snow Light Snow
10:45 AM 28.4 °F 17.0 °F 28.4 °F 100% 29.57 in 0.7 mi East 15.0 mph 21.9 mph N/A   Mist
10:47 AM 28.4 °F 17.0 °F 28.4 °F 100% 29.57 in 0.5 mi East 15.0 mph 21.9 mph N/A Fog Light Freezing Fog
10:53 AM 28.4 °F 17.0 °F 28.4 °F 100% 29.57 in 0.7 mi East 15.0 mph - N/A   Mist
10:58 AM 28.6 °F 16.8 °F 28.4 °F 99% 29.60 in 0.7 mi East 16.1 mph - 0.00 in   Mist
10:59 AM 28.4 °F 17.0 °F 28.4 °F 100% 29.57 in 0.7 mi East 15.0 mph - N/A   Mist
11:13 AM 28.4 °F 17.0 °F 28.4 °F 100% 29.56 in 0.7 mi East 15.0 mph - N/A Snow Light Snow
11:28 AM 28.4 °F 16.6 °F 28.4 °F 100% 29.55 in 1.0 mi East 16.1 mph - N/A   Mist
11:32 AM 28.4 °F 17.0 °F 28.4 °F 100% 29.55 in 1.0 mi East 15.0 mph - N/A   Mist
11:34 AM 28.4 °F 17.0 °F 28.4 °F 100% 29.55 in 1.0 mi East 15.0 mph - N/A   Mist
11:39 AM 28.4 °F 17.5 °F 28.4 °F 100% 29.54 in 0.7 mi East 13.8 mph - N/A   Mist
11:43 AM 28.4 °F 16.6 °F 28.4 °F 100% 29.54 in 1.0 mi East 16.1 mph - N/A   Mist
11:46 AM 28.4 °F 16.6 °F 28.4 °F 100% 29.54 in 1.0 mi East 16.1 mph - N/A   Mist
11:47 AM 28.4 °F 16.6 °F 28.4 °F 100% 29.53 in 1.0 mi East 16.1 mph - N/A   Mist
11:53 AM 28.4 °F 16.6 °F 28.4 °F 100% 29.53 in 1.0 mi East 16.1 mph - N/A Snow Light Snow
11:58 AM 28.2 °F 16.3 °F 28.0 °F 99% 29.56 in 1.2 mi East 16.1 mph - 0.00 in Snow Light Snow
12:03 PM 28.4 °F 16.6 °F 28.4 °F 100% 29.53 in 1.2 mi East 16.1 mph - N/A Snow Light Snow
12:09 PM 28.4 °F 17.0 °F 28.4 °F 100% 29.53 in 1.2 mi East 15.0 mph - N/A Snow Light Snow
12:19 PM 28.4 °F 17.5 °F 28.4 °F 100% 29.52 in 1.5 mi East 13.8 mph - N/A Snow Light Snow
12:22 PM 28.4 °F 16.6 °F 28.4 °F 100% 29.52 in 1.7 mi East 16.1 mph - N/A Snow Light Snow
12:25 PM 28.4 °F 15.8 °F 28.4 °F 100% 29.52 in - East 18.4 mph 23.0 mph N/A   Overcast
12:31 PM 28.4 °F 16.6 °F 28.4 °F 100% 29.51 in 1.7 mi East 16.1 mph 23.0 mph N/A   Overcast
12:34 PM 28.4 °F 17.5 °F 28.4 °F 100% 29.51 in 1.5 mi East 13.8 mph 23.0 mph N/A   Overcast
12:37 PM 28.4 °F 17.0 °F 28.4 °F 100% 29.51 in 1.2 mi East 15.0 mph - N/A   Overcast
12:43 PM 28.4 °F 17.0 °F 28.4 °F 100% 29.51 in 1.5 mi East 15.0 mph - N/A   Overcast
12:46 PM 28.4 °F 17.5 °F 28.4 °F 100% 29.50 in 1.7 mi East 13.8 mph - N/A   Overcast
12:48 PM 28.4 °F 18.0 °F 28.4 °F 100% 29.50 in - East 12.7 mph - N/A   Overcast
12:50 PM 28.4 °F 18.0 °F 28.4 °F 100% 29.50 in 2.5 mi East 12.7 mph - N/A   Overcast
12:53 PM 28.4 °F 18.0 °F 28.4 °F 100% 29.50 in - East 12.7 mph - N/A   Overcast
12:54 PM 28.4 °F 18.0 °F 28.4 °F 100% 29.50 in - East 12.7 mph - N/A   Overcast
12:55 PM 28.4 °F 18.0 °F 28.4 °F 100% 29.50 in - East 12.7 mph - N/A   Overcast
12:56 PM 28.4 °F 17.5 °F 28.4 °F 100% 29.50 in 3.7 mi East 13.8 mph - N/A   Overcast
12:58 PM 28.6 °F 17.2 °F 28.4 °F 99% 29.53 in 3.7 mi East 15.0 mph - 0.00 in   Overcast
1:05 PM 28.4 °F 18.0 °F 28.4 °F 100% 29.50 in 5.0 mi East 12.7 mph - N/A   Overcast
1:11 PM 28.4 °F 17.0 °F 28.4 °F 100% 29.49 in 3.7 mi East 15.0 mph - N/A Snow Light Snow
1:15 PM 28.4 °F 18.0 °F 28.4 °F 100% 29.49 in - East 12.7 mph - N/A Snow Light Snow
1:16 PM 28.4 °F 17.0 °F 28.4 °F 100% 29.49 in - East 15.0 mph - N/A Snow Light Snow
1:17 PM 28.4 °F 17.0 °F 28.4 °F 100% 29.49 in - East 15.0 mph - N/A Snow Light Snow
1:18 PM 28.4 °F 17.5 °F 28.4 °F 100% 29.49 in 2.5 mi East 13.8 mph - N/A Snow Light Snow
1:19 PM 28.4 °F 17.5 °F 28.4 °F 100% 29.49 in 2.5 mi East 13.8 mph - N/A Snow Light Snow
1:22 PM 28.4 °F 17.0 °F 28.4 °F 100% 29.49 in - East 15.0 mph - N/A   Overcast
1:24 PM 28.4 °F 17.5 °F 28.4 °F 100% 29.49 in - East 13.8 mph - N/A   Overcast
1:29 PM 28.4 °F 17.0 °F 28.4 °F 100% 29.48 in 2.5 mi East 15.0 mph - N/A   Overcast
1:32 PM 28.4 °F 17.0 °F 28.4 °F 100% 29.48 in 2.5 mi East 15.0 mph - N/A   Overcast
1:36 PM 28.4 °F 18.0 °F 28.4 °F 100% 29.48 in - East 12.7 mph - N/A   Overcast
1:37 PM 28.4 °F 18.0 °F 28.4 °F 100% 29.48 in - East 12.7 mph - N/A   Overcast
1:38 PM 28.4 °F 17.5 °F 28.4 °F 100% 29.48 in - East 13.8 mph - N/A   Overcast
1:39 PM 28.4 °F 17.5 °F 28.4 °F 100% 29.48 in - East 13.8 mph - N/A   Overcast
1:40 PM 28.4 °F 17.5 °F 28.4 °F 100% 29.48 in - East 13.8 mph - N/A   Overcast
1:41 PM 28.4 °F 17.5 °F 28.4 °F 100% 29.48 in - East 13.8 mph - N/A   Overcast
1:42 PM 28.4 °F 17.0 °F 28.4 °F 100% 29.48 in - East 15.0 mph - N/A   Overcast
1:43 PM 28.4 °F 17.0 °F 28.4 °F 100% 29.48 in - East 15.0 mph - N/A   Overcast
1:44 PM 28.4 °F 17.0 °F 28.4 °F 100% 29.48 in - East 15.0 mph - N/A   Overcast
1:45 PM 28.4 °F 17.5 °F 28.4 °F 100% 29.48 in - East 13.8 mph - N/A   Overcast
1:46 PM 28.4 °F 17.5 °F 28.4 °F 100% 29.48 in - East 13.8 mph - N/A   Overcast
1:47 PM 28.4 °F 17.0 °F 28.4 °F 100% 29.48 in - East 15.0 mph - N/A   Overcast
1:48 PM 28.4 °F 17.0 °F 28.4 °F 100% 29.48 in - East 15.0 mph - N/A   Overcast
1:49 PM 28.4 °F 17.5 °F 28.4 °F 100% 29.48 in - East 13.8 mph - N/A   Overcast
1:50 PM 28.4 °F 18.0 °F 28.4 °F 100% 29.48 in - East 12.7 mph - N/A   Overcast
1:51 PM 28.4 °F 18.0 °F 28.4 °F 100% 29.48 in - East 12.7 mph - N/A   Overcast
1:52 PM 28.4 °F 18.0 °F 28.4 °F 100% 29.48 in - East 12.7 mph - N/A   Overcast
1:53 PM 28.4 °F 18.0 °F 28.4 °F 100% 29.48 in - East 12.7 mph - N/A   Overcast
1:54 PM 28.4 °F 18.0 °F 28.4 °F 100% 29.48 in - East 12.7 mph - N/A   Overcast
1:55 PM 28.4 °F 18.0 °F 28.4 °F 100% 29.48 in 2.5 mi East 12.7 mph - N/A   Overcast
1:58 PM 28.6 °F 17.7 °F 28.0 °F 98% 29.51 in 2.5 mi East 13.8 mph - 0.00 in   Overcast
1:59 PM 28.4 °F 17.5 °F 28.4 °F 100% 29.47 in 2.5 mi East 13.8 mph - N/A   Overcast
2:01 PM 28.4 °F 18.0 °F 28.4 °F 100% 29.47 in - East 12.7 mph - N/A   Overcast
2:07 PM 28.4 °F 18.5 °F 28.4 °F 100% 29.47 in 2.5 mi East 11.5 mph - N/A Snow Light Snow
2:13 PM 28.4 °F 18.0 °F 28.4 °F 100% 29.47 in - East 12.7 mph - N/A   Overcast
2:14 PM 28.4 °F 18.0 °F 28.4 °F 100% 29.47 in - East 12.7 mph - N/A   Overcast
2:15 PM 28.4 °F 18.5 °F 28.4 °F 100% 29.47 in 3.7 mi East 11.5 mph - N/A   Overcast
2:22 PM 28.4 °F 18.0 °F 28.4 °F 100% 29.47 in 3.7 mi East 12.7 mph - N/A   Overcast
2:26 PM 28.4 °F 17.5 °F 28.4 °F 100% 29.46 in 5.0 mi East 13.8 mph - N/A   Overcast
2:39 PM 28.4 °F 18.5 °F 28.4 °F 100% 29.46 in 3.7 mi East 11.5 mph - N/A   Overcast
2:42 PM 28.4 °F 17.5 °F 28.4 °F 100% 29.46 in 3.7 mi East 13.8 mph - N/A   Overcast
2:48 PM 28.4 °F 18.0 °F 28.4 °F 100% 29.45 in - East 12.7 mph - N/A   Overcast
2:49 PM 28.4 °F 18.0 °F 28.4 °F 100% 29.45 in - East 12.7 mph - N/A   Overcast
2:50 PM 28.4 °F 17.5 °F 28.4 °F 100% 29.45 in - East 13.8 mph - N/A   Overcast
2:51 PM 28.4 °F 17.5 °F 28.4 °F 100% 29.45 in - East 13.8 mph - N/A   Overcast
2:52 PM 28.4 °F 18.0 °F 28.4 °F 100% 29.45 in - East 12.7 mph - N/A   Overcast
2:53 PM 28.4 °F 17.5 °F 28.4 °F 100% 29.45 in - East 13.8 mph - N/A   Overcast
2:54 PM 28.4 °F 18.0 °F 28.4 °F 100% 29.45 in - East 12.7 mph - N/A   Overcast
2:55 PM 28.4 °F 18.0 °F 28.4 °F 100% 29.45 in 2.5 mi East 12.7 mph - N/A   Overcast
2:58 PM 28.4 °F 18.5 °F 28.2 °F 99% 29.48 in 2.5 mi East 11.5 mph - 0.00 in   Overcast
3:02 PM 28.4 °F 17.5 °F 28.4 °F 100% 29.44 in 2.5 mi East 13.8 mph - N/A   Overcast
3:10 PM 28.4 °F 17.5 °F 28.4 °F 100% 29.44 in - East 13.8 mph - N/A Snow Light Snow
3:16 PM 28.4 °F 18.0 °F 28.4 °F 100% 29.44 in 1.7 mi East 12.7 mph - N/A Snow Light Snow
3:17 PM 28.4 °F 18.0 °F 28.4 °F 100% 29.44 in 1.7 mi East 12.7 mph - N/A Snow Light Snow
3:33 PM 28.4 °F 16.6 °F 28.4 °F 100% 29.44 in 1.7 mi East 16.1 mph 20.7 mph N/A Snow Light Snow
3:44 PM 28.4 °F 17.5 °F 28.4 °F 100% 29.44 in - East 13.8 mph - N/A Snow Light Snow
3:46 PM 28.4 °F 17.0 °F 28.4 °F 100% 29.44 in - East 15.0 mph - N/A Snow Light Snow
3:58 PM 28.4 °F 18.0 °F 28.2 °F 99% 29.46 in - East 12.7 mph - 0.00 in Snow Light Snow
4:04 PM 28.4 °F 18.0 °F 28.4 °F 100% 29.43 in 2.5 mi East 12.7 mph - N/A Snow Light Snow
4:13 PM 28.4 °F 18.0 °F 28.4 °F 100% 29.43 in 2.5 mi East 12.7 mph - N/A Snow Light Snow
4:18 PM 28.4 °F 18.0 °F 28.4 °F 100% 29.43 in 2.5 mi East 12.7 mph - N/A Snow Light Snow
4:23 PM 28.4 °F 18.5 °F 28.4 °F 100% 29.43 in - East 11.5 mph - N/A   Overcast
4:24 PM 28.4 °F 18.0 °F 28.4 °F 100% 29.43 in - East 12.7 mph - N/A   Overcast
4:25 PM 28.4 °F 18.0 °F 28.4 °F 100% 29.43 in - East 12.7 mph - N/A   Overcast
4:26 PM 28.4 °F 18.0 °F 28.4 °F 100% 29.43 in 3.7 mi East 12.7 mph - N/A   Overcast
4:28 PM 28.4 °F 18.0 °F 28.4 °F 100% 29.43 in 3.7 mi East 12.7 mph - N/A   Overcast
4:33 PM 28.4 °F 18.0 °F 28.4 °F 100% 29.43 in 5.0 mi East 12.7 mph - N/A   Overcast
4:58 PM 28.8 °F 19.0 °F 28.2 °F 98% 29.46 in 6.2 mi East 11.5 mph - 0.00 in   Overcast
5:04 PM 28.4 °F 18.5 °F 28.4 °F 100% 29.44 in 6.2 mi East 11.5 mph - N/A   Overcast
5:10 PM 28.4 °F 19.1 °F 28.4 °F 100% 29.44 in 6.2 mi East 10.4 mph - N/A Snow Light Snow
5:37 PM 28.4 °F 18.0 °F 28.4 °F 100% 29.43 in 6.2 mi East 12.7 mph - N/A   Overcast
5:58 PM 28.9 °F 18.2 °F 28.8 °F 99% 29.46 in 6.2 mi East 13.8 mph 19.6 mph 0.00 in   Overcast
6:58 PM 28.9 °F 19.2 °F 28.8 °F 99% 29.45 in 6.2 mi East 11.5 mph - N/A   Overcast
7:27 PM 28.4 °F 19.1 °F 28.4 °F 100% 29.42 in 6.2 mi East 10.4 mph - N/A   Overcast
7:58 PM 29.1 °F 21.3 °F 28.4 °F 97% 29.45 in 6.2 mi East 8.1 mph - N/A   Overcast
8:05 PM 28.4 °F 19.1 °F 28.4 °F 100% 29.42 in 6.2 mi East 10.4 mph - N/A   Overcast
8:58 PM 29.1 °F 19.4 °F 28.6 °F 98% 29.45 in 6.2 mi East 11.5 mph - N/A   Overcast
9:46 PM 28.4 °F 18.5 °F 28.4 °F 100% 29.42 in 6.2 mi East 11.5 mph - N/A   Overcast
9:48 PM 28.4 °F 18.5 °F 28.4 °F 100% 29.42 in 6.2 mi East 11.5 mph - N/A   Overcast
9:54 PM 28.4 °F 19.1 °F 28.4 °F 100% 29.42 in 6.2 mi East 10.4 mph - N/A   Overcast
9:58 PM 28.9 °F 19.2 °F 28.2 °F 97% 29.45 in 6.2 mi East 11.5 mph - N/A   Overcast
10:58 PM 29.3 °F 19.6 °F 28.4 °F 96% 29.45 in 6.2 mi East 11.5 mph - N/A   Overcast
11:10 PM 30.2 °F 20.2 °F 28.4 °F 93% 29.42 in 6.2 mi East 12.7 mph - N/A   Overcast
11:58 PM 30.0 °F 21.1 °F 28.2 °F 93% 29.44 in 6.2 mi East 10.4 mph - N/A   Overcast